Change the Weather History Date:

Wednesday, November 6, 2013

  Actual Average (KSZL) Record (KSZL)
Temperature  
Mean Temperature 47 °F -  
Max Temperature 59 °F 54 °F 80 °F (1999)
Min Temperature 33 °F 38 °F 25 °F (2010)
Degree Days  
Heating Degree Days 18    
Moisture  
Dew Point 36 °F    
Average Humidity 82    
Maximum Humidity 94    
Minimum Humidity 61    
Precipitation  
Precipitation 0.01 in - - ()
Sea Level Pressure  
Sea Level Pressure 30.17 in    
Wind  
Wind Speed 11 mph (West)    
Max Wind Speed 17 mph    
Max Gust Speed 28 mph    
Visibility 10 miles    
Events Rain , Thunderstorm    
Averages and records for this station are not official NWS values.
T = Trace of Precipitation, MM = Missing Value Source: NWS Daily Summary

Daily Weather History Graph

Daily Weather History Graph

Search for Another Location

Airport or City:

Trip Planner

Search our weather history database for the weather conditions in past years. The results will help you decide how hot, cold, wet, or windy it might be!

Date:

Astronomy

Nov. 06, 2013 Rise Set
Actual Time 6:47 AM CST 5:09 PM CST
Civil Twilight 6:20 AM CST 5:37 PM CST
Nautical Twilight 5:48 AM CST 6:08 PM CST
Astronomical Twilight 5:17 AM CST 6:39 PM CST
Moon 10:02 AM CST (11/6) 8:15 PM CST (11/6)
Length of Visible Light 11h 17m
Length of Day
10h 21m
Waxing Crescent, 14% of the Moon is Illuminated
Nov 6
Waxing Crescent
Nov 9
First Quarter
Nov 17
Full
Nov 25
Last Quarter
Dec 2
New

Hourly Weather History & Observations

Time (CST) Temp. Windchill Dew Point Humidity Pressure Visibility Wind Dir Wind Speed Gust Speed Precip Events Conditions
12:15 AM 59.0 °F - 55.4 °F 88% 29.89 in 4.0 mi SSW 13.8 mph 20.7 mph N/A Rain , Thunderstorm Thunderstorms and Rain
12:35 AM 57.2 °F - 55.4 °F 94% 29.89 in 7.0 mi SSW 10.4 mph - N/A Rain Rain
12:55 AM 55.4 °F - 53.6 °F 94% 29.90 in 10.0 mi SSW 9.2 mph - N/A Rain Rain
1:15 AM 57.2 °F - 55.4 °F 94% 29.90 in 10.0 mi West 13.8 mph - N/A Rain Rain
1:35 AM 51.8 °F - 50.0 °F 94% 29.91 in 10.0 mi WNW 12.7 mph 20.7 mph N/A Rain Light Rain
1:55 AM 48.2 °F - 46.4 °F 93% 29.92 in 10.0 mi WNW 12.7 mph 24.2 mph N/A Rain Rain
2:15 AM 46.4 °F 41.5 °F 42.8 °F 87% 29.95 in 10.0 mi West 10.4 mph 18.4 mph N/A Rain Rain
2:35 AM 44.6 °F 37.4 °F 41.0 °F 87% 29.96 in 10.0 mi West 16.1 mph 20.7 mph N/A Rain Light Rain
2:55 AM 42.8 °F 38.0 °F 41.0 °F 93% 29.95 in 10.0 mi WNW 8.1 mph 21.9 mph N/A   Drizzle
3:15 AM 42.8 °F 36.6 °F 41.0 °F 93% 29.97 in 10.0 mi West 11.5 mph - N/A   Light Drizzle
3:35 AM 41.0 °F 33.9 °F 39.2 °F 93% 29.99 in 10.0 mi West 12.7 mph 16.1 mph N/A   Overcast
3:55 AM 41.0 °F 35.8 °F 37.4 °F 87% 30.00 in 10.0 mi WNW 8.1 mph - N/A   Overcast
4:15 AM 41.0 °F 33.1 °F 37.4 °F 87% 30.01 in 10.0 mi WNW 15.0 mph 21.9 mph N/A Rain Light Rain
4:35 AM 41.0 °F 35.2 °F 37.4 °F 87% 30.00 in 10.0 mi WNW 9.2 mph - N/A   Overcast
4:55 AM 39.2 °F 32.5 °F 37.4 °F 93% 30.02 in 10.0 mi WNW 10.4 mph - N/A   Overcast
5:15 AM 39.2 °F 30.5 °F 35.6 °F 87% 30.03 in 10.0 mi NW 16.1 mph 27.6 mph N/A   Overcast
5:35 AM 39.2 °F 30.8 °F 35.6 °F 87% 30.05 in 10.0 mi WNW 15.0 mph 21.9 mph N/A   Overcast
5:55 AM 39.2 °F 32.5 °F 35.6 °F 87% 30.06 in 10.0 mi WNW 10.4 mph - N/A   Overcast
6:15 AM 37.4 °F 28.5 °F 35.6 °F 93% 30.06 in 10.0 mi WNW 15.0 mph 18.4 mph N/A   Overcast
6:35 AM 37.4 °F 29.3 °F 35.6 °F 93% 30.07 in 10.0 mi WNW 12.7 mph 20.7 mph N/A   Overcast
6:55 AM 37.4 °F 27.8 °F 35.6 °F 93% 30.09 in 10.0 mi NW 17.3 mph - N/A   Overcast
7:15 AM 37.4 °F 29.3 °F 35.6 °F 93% 30.10 in 10.0 mi WNW 12.7 mph 23.0 mph N/A   Overcast
7:35 AM 37.4 °F 28.2 °F 33.8 °F 87% 30.11 in 10.0 mi WNW 16.1 mph 20.7 mph N/A   Overcast
7:55 AM 37.4 °F 28.2 °F 33.8 °F 87% 30.13 in 10.0 mi WNW 16.1 mph 21.9 mph N/A   Overcast
8:15 AM 37.4 °F 30.8 °F 33.8 °F 87% 30.15 in 10.0 mi WNW 9.2 mph 18.4 mph N/A   Overcast
8:35 AM 37.4 °F 29.8 °F 33.8 °F 87% 30.15 in 10.0 mi NW 11.5 mph - N/A   Overcast
8:55 AM 37.4 °F 29.8 °F 33.8 °F 87% 30.16 in 10.0 mi WNW 11.5 mph - N/A   Overcast
9:15 AM 39.2 °F 31.2 °F 33.8 °F 81% 30.17 in 10.0 mi WNW 13.8 mph 19.6 mph N/A   Overcast
9:35 AM 39.2 °F 32.5 °F 33.8 °F 81% 30.18 in 10.0 mi WNW 10.4 mph 18.4 mph N/A   Overcast
9:55 AM 41.0 °F 33.9 °F 33.8 °F 76% 30.18 in 10.0 mi NW 12.7 mph 20.7 mph N/A   Overcast
10:15 AM 41.0 °F 33.1 °F 33.8 °F 76% 30.19 in 10.0 mi WNW 15.0 mph - N/A   Overcast
10:35 AM 41.0 °F 33.9 °F 33.8 °F 76% 30.20 in 10.0 mi WNW 12.7 mph 20.7 mph N/A   Overcast
10:55 AM 41.0 °F 34.3 °F 33.8 °F 76% 30.20 in 10.0 mi WNW 11.5 mph 18.4 mph N/A   Overcast
11:15 AM 41.0 °F 33.1 °F 33.8 °F 76% 30.21 in 10.0 mi WNW 15.0 mph 20.7 mph N/A   Overcast
11:35 AM 41.0 °F 34.3 °F 33.8 °F 76% 30.21 in 10.0 mi WNW 11.5 mph 18.4 mph N/A   Overcast
11:55 AM 41.0 °F 33.5 °F 33.8 °F 76% 30.21 in 10.0 mi NW 13.8 mph 20.7 mph 0.01 in   Overcast
12:15 PM 41.0 °F 33.1 °F 33.8 °F 76% 30.20 in 10.0 mi WNW 15.0 mph 18.4 mph N/A   Overcast
12:35 PM 42.8 °F 36.2 °F 33.8 °F 70% 30.21 in 10.0 mi NW 12.7 mph 21.9 mph N/A   Overcast
12:55 PM 42.8 °F 36.2 °F 33.8 °F 70% 30.21 in 10.0 mi NW 12.7 mph 16.1 mph N/A   Overcast
1:15 PM 42.8 °F 36.6 °F 33.8 °F 70% 30.22 in 10.0 mi WNW 11.5 mph 20.7 mph N/A   Overcast
1:35 PM 42.8 °F 35.8 °F 33.8 °F 70% 30.23 in 10.0 mi NW 13.8 mph 19.6 mph N/A   Overcast
1:55 PM 42.8 °F 37.0 °F 33.8 °F 70% 30.23 in 10.0 mi NW 10.4 mph - N/A   Overcast
2:15 PM 42.8 °F 36.6 °F 33.8 °F 70% 30.24 in 10.0 mi WNW 11.5 mph - N/A   Overcast
2:35 PM 42.8 °F 38.0 °F 33.8 °F 70% 30.24 in 10.0 mi WNW 8.1 mph - N/A   Overcast
2:55 PM 42.8 °F 38.0 °F 33.8 °F 70% 30.25 in 10.0 mi WNW 8.1 mph - N/A   Overcast
3:15 PM 42.8 °F 38.0 °F 32.0 °F 66% 30.25 in 10.0 mi WNW 8.1 mph - N/A   Overcast
3:35 PM 44.6 °F 38.8 °F 32.0 °F 61% 30.25 in 10.0 mi West 11.5 mph - N/A   Overcast
3:55 PM 44.6 °F 40.2 °F 32.0 °F 61% 30.25 in 10.0 mi NW 8.1 mph - N/A   Overcast
4:15 PM 42.8 °F 38.6 °F 32.0 °F 66% 30.26 in 10.0 mi WNW 6.9 mph - N/A   Overcast
4:35 PM 42.8 °F 37.5 °F 32.0 °F 66% 30.26 in 10.0 mi West 9.2 mph - N/A   Overcast
4:55 PM 41.0 °F 38.0 °F 32.0 °F 70% 30.27 in 10.0 mi West 4.6 mph - N/A   Mostly Cloudy
5:15 PM 41.0 °F 38.0 °F 32.0 °F 70% 30.27 in 10.0 mi West 4.6 mph - N/A   Scattered Clouds
5:35 PM 39.2 °F 35.9 °F 32.0 °F 75% 30.27 in 10.0 mi West 4.6 mph - N/A   Clear
6:15 PM 37.4 °F 33.8 °F 32.0 °F 81% 30.28 in 10.0 mi SW 4.6 mph - N/A   Clear
6:35 PM 35.6 °F 32.8 °F 32.0 °F 87% 30.28 in 10.0 mi SW 3.5 mph - N/A   Scattered Clouds
6:55 PM 37.4 °F 34.9 °F 32.0 °F 81% 30.29 in 10.0 mi SSW 3.5 mph - N/A   Scattered Clouds
7:15 PM 35.6 °F 32.8 °F 32.0 °F 87% 30.29 in 10.0 mi SW 3.5 mph - N/A   Scattered Clouds
7:35 PM 35.6 °F 31.7 °F 32.0 °F 87% 30.29 in 10.0 mi SW 4.6 mph - N/A   Clear
7:55 PM 35.6 °F 31.7 °F 32.0 °F 87% 30.30 in 10.0 mi SW 4.6 mph - N/A   Clear
8:15 PM 35.6 °F 30.7 °F 32.0 °F 87% 30.30 in 10.0 mi SW 5.8 mph - N/A   Clear
8:35 PM 35.6 °F 31.7 °F 32.0 °F 87% 30.30 in 10.0 mi SW 4.6 mph - N/A   Clear
8:55 PM 35.6 °F 32.8 °F 32.0 °F 87% 30.31 in 10.0 mi SW 3.5 mph - N/A   Clear
9:15 PM 35.6 °F - 32.0 °F 87% 30.31 in 10.0 mi Calm Calm - N/A   Clear
9:35 PM 35.6 °F 31.7 °F 32.0 °F 87% 30.32 in 10.0 mi WSW 4.6 mph - N/A   Clear
9:55 PM 35.6 °F 29.9 °F 32.0 °F 87% 30.33 in 10.0 mi WSW 6.9 mph - N/A   Clear
10:15 PM 35.6 °F 29.2 °F 32.0 °F 87% 30.33 in 10.0 mi WSW 8.1 mph - N/A   Clear
10:35 PM 35.6 °F 29.2 °F 32.0 °F 87% 30.33 in 10.0 mi WSW 8.1 mph - N/A   Clear
10:55 PM 35.6 °F 29.2 °F 32.0 °F 87% 30.33 in 10.0 mi WSW 8.1 mph - N/A   Clear
11:15 PM 35.6 °F 29.2 °F 32.0 °F 87% 30.33 in 10.0 mi WSW 8.1 mph - N/A   Clear
11:35 PM 35.6 °F 29.9 °F 32.0 °F 87% 30.33 in 10.0 mi West 6.9 mph - N/A   Clear
11:55 PM 33.8 °F 28.6 °F 32.0 °F 93% 30.34 in 10.0 mi West 5.8 mph - N/A   Clear